Time,TemperatureF,DewpointF,PressureIn,WindDirection,WindDirectionDegrees,WindSpeedMPH,WindSpeedGustMPH,Humidity,HourlyPrecipIn,Conditions,Clouds,dailyrainin,SolarRadiationWatts/m^2,SoftwareType,DateUTC
2013-03-05 00:21:00,47.0,29.0,-100.00,SE,126,10.0,16.0,49,0.00,,,0.00,0.000000,,2013-03-05 10:21:00,
2013-03-05 00:32:00,47.0,29.0,-100.00,SE,126,10.0,16.0,49,0.00,,,0.00,0.000000,,2013-03-05 10:32:00,
2013-03-05 00:42:00,47.0,29.0,-100.00,SE,126,10.0,16.0,49,0.00,,,0.00,0.000000,,2013-03-05 10:42:00,
2013-03-05 00:51:00,47.0,29.0,-100.00,SE,126,10.0,16.0,49,0.00,,,0.00,0.000000,,2013-03-05 10:51:00,
2013-03-05 01:22:00,49.0,31.0,-100.00,SE,135,10.0,17.0,49,0.00,,,-99.99,0.000000,,2013-03-05 11:22:00,
2013-03-05 01:32:00,49.0,31.0,-100.00,SE,135,10.0,17.0,49,0.00,,,-99.99,0.000000,,2013-03-05 11:32:00,
2013-03-05 01:42:00,49.0,31.0,-100.00,SE,135,10.0,17.0,49,0.00,,,-99.99,0.000000,,2013-03-05 11:42:00,
2013-03-05 01:52:00,49.0,31.0,-100.00,SE,135,10.0,17.0,49,0.00,,,-99.99,0.000000,,2013-03-05 11:52:00,
2013-03-05 02:22:00,45.0,35.0,-100.00,ESE,122,10.0,16.0,68,0.00,,,0.00,0.000000,,2013-03-05 12:22:00,
2013-03-05 02:32:00,45.0,35.0,-100.00,ESE,122,10.0,16.0,68,0.00,,,0.00,0.000000,,2013-03-05 12:32:00,
2013-03-05 02:42:00,45.0,35.0,-100.00,ESE,122,10.0,16.0,68,0.00,,,0.00,0.000000,,2013-03-05 12:42:00,
2013-03-05 02:52:00,45.0,35.0,-100.00,ESE,122,10.0,16.0,68,0.00,,,0.00,0.000000,,2013-03-05 12:52:00,
2013-03-05 03:21:00,45.0,33.0,-100.00,SE,141,13.0,18.0,62,0.00,,,0.00,0.000000,,2013-03-05 13:21:00,
2013-03-05 03:32:00,45.0,33.0,-100.00,SE,141,13.0,18.0,62,0.00,,,0.00,0.000000,,2013-03-05 13:32:00,
2013-03-05 03:42:00,45.0,33.0,-100.00,SE,141,13.0,18.0,62,0.00,,,0.00,0.000000,,2013-03-05 13:42:00,
2013-03-05 03:51:00,45.0,33.0,-100.00,SE,141,13.0,18.0,62,0.00,,,0.00,0.000000,,2013-03-05 13:51:00,
2013-03-05 04:21:00,42.0,32.0,-100.00,ESE,122,11.0,16.0,68,0.00,,,-99.99,0.000000,,2013-03-05 14:21:00,
2013-03-05 04:31:00,42.0,32.0,-100.00,ESE,122,11.0,16.0,68,0.00,,,-99.99,0.000000,,2013-03-05 14:31:00,
2013-03-05 04:42:00,42.0,32.0,-100.00,ESE,122,11.0,16.0,68,0.00,,,-99.99,0.000000,,2013-03-05 14:42:00,
2013-03-05 04:52:00,42.0,32.0,-100.00,ESE,122,11.0,16.0,68,0.00,,,-99.99,0.000000,,2013-03-05 14:52:00,
2013-03-05 05:21:00,40.0,31.0,-100.00,ESE,123,12.0,15.0,69,0.00,,,0.00,0.000000,,2013-03-05 15:21:00,
2013-03-05 05:32:00,40.0,31.0,-100.00,ESE,123,12.0,15.0,69,0.00,,,0.00,0.000000,,2013-03-05 15:32:00,
2013-03-05 05:42:00,40.0,31.0,-100.00,ESE,123,12.0,15.0,69,0.00,,,0.00,0.000000,,2013-03-05 15:42:00,
2013-03-05 05:51:00,40.0,31.0,-100.00,ESE,123,12.0,15.0,69,0.00,,,0.00,0.000000,,2013-03-05 15:51:00,
2013-03-05 06:21:00,41.0,29.0,-100.00,ESE,123,12.0,15.0,62,0.00,,,0.00,0.000000,,2013-03-05 16:21:00,
2013-03-05 06:32:00,41.0,29.0,-100.00,ESE,123,12.0,15.0,62,0.00,,,0.00,0.000000,,2013-03-05 16:32:00,
2013-03-05 06:41:00,41.0,29.0,-100.00,ESE,123,12.0,15.0,62,0.00,,,0.00,0.000000,,2013-03-05 16:41:00,
2013-03-05 06:51:00,41.0,29.0,-100.00,ESE,123,12.0,15.0,62,0.00,,,0.00,0.000000,,2013-03-05 16:51:00,
2013-03-05 07:21:00,40.0,32.0,-100.00,ESE,120,13.0,16.0,74,0.00,,,0.00,2.000000,,2013-03-05 17:21:00,
2013-03-05 07:32:00,40.0,32.0,-100.00,ESE,120,13.0,16.0,74,0.00,,,0.00,2.000000,,2013-03-05 17:32:00,
2013-03-05 07:41:00,40.0,32.0,-100.00,ESE,120,13.0,16.0,74,0.00,,,0.00,2.000000,,2013-03-05 17:41:00,
2013-03-05 07:52:00,40.0,32.0,-100.00,ESE,120,13.0,16.0,74,0.00,,,0.00,2.000000,,2013-03-05 17:52:00,
2013-03-05 08:21:00,55.0,42.0,-100.00,SSE,164,4.0,14.0,62,0.00,,,0.00,144.000000,,2013-03-05 18:21:00,
2013-03-05 08:32:00,55.0,42.0,-100.00,SSE,164,4.0,14.0,62,0.00,,,0.00,144.000000,,2013-03-05 18:32:00,
2013-03-05 08:41:00,55.0,42.0,-100.00,SSE,164,4.0,14.0,62,0.00,,,0.00,144.000000,,2013-03-05 18:41:00,
2013-03-05 08:52:00,55.0,42.0,-100.00,SSE,164,4.0,14.0,62,0.00,,,0.00,144.000000,,2013-03-05 18:52:00,
2013-03-05 09:21:00,59.0,45.0,-100.00,NNW,336,4.0,9.0,59,0.00,,,0.00,388.000000,,2013-03-05 19:21:00,
2013-03-05 09:32:00,59.0,45.0,-100.00,NNW,336,4.0,9.0,59,0.00,,,0.00,388.000000,,2013-03-05 19:32:00,
2013-03-05 09:41:00,59.0,45.0,-100.00,NNW,336,4.0,9.0,59,0.00,,,0.00,388.000000,,2013-03-05 19:41:00,
2013-03-05 09:51:00,59.0,45.0,-100.00,NNW,336,4.0,9.0,59,0.00,,,0.00,388.000000,,2013-03-05 19:51:00,
2013-03-05 10:21:00,63.0,48.0,-100.00,NW,315,7.0,13.0,58,0.00,,,0.00,713.000000,,2013-03-05 20:21:00,
2013-03-05 10:32:00,63.0,48.0,-100.00,NW,315,7.0,13.0,58,0.00,,,0.00,713.000000,,2013-03-05 20:32:00,
2013-03-05 10:41:00,63.0,48.0,-100.00,NW,315,7.0,13.0,58,0.00,,,0.00,713.000000,,2013-03-05 20:41:00,
2013-03-05 10:52:00,63.0,48.0,-100.00,NW,315,7.0,13.0,58,0.00,,,0.00,713.000000,,2013-03-05 20:52:00,
2013-03-05 11:21:00,63.0,47.0,-100.00,NW,306,8.0,15.0,56,0.00,,,0.00,918.000000,,2013-03-05 21:21:00,
2013-03-05 11:31:00,63.0,47.0,-100.00,NW,306,8.0,15.0,56,0.00,,,0.00,918.000000,,2013-03-05 21:31:00,
2013-03-05 11:41:00,63.0,47.0,-100.00,NW,306,8.0,15.0,56,0.00,,,0.00,918.000000,,2013-03-05 21:41:00,
2013-03-05 11:52:00,63.0,47.0,-100.00,NW,306,8.0,15.0,56,0.00,,,0.00,918.000000,,2013-03-05 21:52:00,
2013-03-05 12:21:00,67.0,47.0,-100.00,West,262,9.0,17.0,48,0.00,,,0.00,1058.000000,,2013-03-05 22:21:00,
2013-03-05 12:32:00,67.0,47.0,-100.00,West,262,9.0,17.0,48,0.00,,,0.00,1058.000000,,2013-03-05 22:32:00,
2013-03-05 12:41:00,67.0,47.0,-100.00,West,262,9.0,17.0,48,0.00,,,0.00,1058.000000,,2013-03-05 22:41:00,
2013-03-05 12:52:00,67.0,47.0,-100.00,West,262,9.0,17.0,48,0.00,,,0.00,1058.000000,,2013-03-05 22:52:00,
2013-03-05 13:21:00,67.0,51.0,-100.00,NW,310,13.0,25.0,56,0.00,,,0.00,1114.000000,,2013-03-05 23:21:00,
2013-03-05 13:32:00,67.0,51.0,-100.00,NW,310,13.0,25.0,56,0.00,,,0.00,1114.000000,,2013-03-05 23:32:00,
2013-03-05 13:41:00,67.0,51.0,-100.00,NW,310,13.0,25.0,56,0.00,,,0.00,1114.000000,,2013-03-05 23:41:00,
2013-03-05 13:52:00,67.0,51.0,-100.00,NW,310,13.0,25.0,56,0.00,,,0.00,1114.000000,,2013-03-05 23:52:00,
2013-03-05 14:21:00,68.0,52.0,-100.00,NW,325,11.0,27.0,56,0.00,,,0.00,974.000000,,2013-03-06 00:21:00,
2013-03-05 14:32:00,68.0,52.0,-100.00,NW,325,11.0,27.0,56,0.00,,,0.00,974.000000,,2013-03-06 00:32:00,
2013-03-05 14:41:00,68.0,52.0,-100.00,NW,325,11.0,27.0,56,0.00,,,0.00,974.000000,,2013-03-06 00:41:00,
2013-03-05 14:51:00,68.0,52.0,-100.00,NW,325,11.0,27.0,56,0.00,,,0.00,974.000000,,2013-03-06 00:51:00,
2013-03-05 15:21:00,64.0,52.0,-100.00,NW,310,10.0,25.0,65,0.00,,,0.00,730.000000,,2013-03-06 01:21:00,
2013-03-05 15:31:00,64.0,52.0,-100.00,NW,310,10.0,25.0,65,0.00,,,0.00,730.000000,,2013-03-06 01:31:00,
2013-03-05 15:41:00,64.0,52.0,-100.00,NW,310,10.0,25.0,65,0.00,,,0.00,730.000000,,2013-03-06 01:41:00,
2013-03-05 15:51:00,64.0,52.0,-100.00,NW,310,10.0,25.0,65,0.00,,,0.00,730.000000,,2013-03-06 01:51:00,
2013-03-05 16:21:00,61.0,54.0,-100.00,NW,317,10.0,23.0,77,0.00,,,0.00,393.000000,,2013-03-06 02:21:00,
2013-03-05 16:31:00,61.0,54.0,-100.00,NW,317,10.0,23.0,77,0.00,,,0.00,393.000000,,2013-03-06 02:31:00,
2013-03-05 16:41:00,61.0,54.0,-100.00,NW,317,10.0,23.0,77,0.00,,,0.00,393.000000,,2013-03-06 02:41:00,
2013-03-05 16:52:00,61.0,54.0,-100.00,NW,317,10.0,23.0,77,0.00,,,0.00,393.000000,,2013-03-06 02:52:00,
2013-03-05 17:21:00,60.0,54.0,-100.00,NW,324,8.0,16.0,81,0.00,,,0.00,76.000000,,2013-03-06 03:21:00,
2013-03-05 17:31:00,60.0,54.0,-100.00,NW,324,8.0,16.0,81,0.00,,,0.00,76.000000,,2013-03-06 03:31:00,
2013-03-05 17:41:00,60.0,54.0,-100.00,NW,324,8.0,16.0,81,0.00,,,0.00,76.000000,,2013-03-06 03:41:00,
2013-03-05 17:52:00,60.0,54.0,-100.00,NW,324,8.0,16.0,81,0.00,,,0.00,76.000000,,2013-03-06 03:52:00,
2013-03-05 18:21:00,57.0,52.0,-100.00,NW,311,8.0,15.0,84,0.00,,,0.00,50.000000,,2013-03-06 04:21:00,
2013-03-05 18:32:00,57.0,52.0,-100.00,NW,311,8.0,15.0,84,0.00,,,0.00,50.000000,,2013-03-06 04:32:00,
2013-03-05 18:41:00,57.0,52.0,-100.00,NW,311,8.0,15.0,84,0.00,,,0.00,50.000000,,2013-03-06 04:41:00,
2013-03-05 18:51:00,57.0,52.0,-100.00,NW,311,8.0,15.0,84,0.00,,,0.00,50.000000,,2013-03-06 04:51:00,
2013-03-05 19:22:00,58.0,54.0,-100.00,NW,304,7.0,11.0,88,0.00,,,0.00,4.000000,,2013-03-06 05:22:00,
2013-03-05 19:32:00,58.0,54.0,-100.00,NW,304,7.0,11.0,88,0.00,,,0.00,4.000000,,2013-03-06 05:32:00,
2013-03-05 19:42:00,58.0,54.0,-100.00,NW,304,7.0,11.0,88,0.00,,,0.00,4.000000,,2013-03-06 05:42:00,
2013-03-05 19:52:00,58.0,54.0,-100.00,NW,304,7.0,11.0,88,0.00,,,0.00,4.000000,,2013-03-06 05:52:00,
2013-03-05 20:22:00,57.0,54.0,-100.00,WNW,296,4.0,10.0,91,0.00,,,0.00,0.000000,,2013-03-06 06:22:00,
2013-03-05 20:31:00,57.0,54.0,-100.00,WNW,296,4.0,10.0,91,0.00,,,0.00,0.000000,,2013-03-06 06:31:00,
2013-03-05 20:41:00,57.0,54.0,-100.00,WNW,296,4.0,10.0,91,0.00,,,0.00,0.000000,,2013-03-06 06:41:00,
2013-03-05 20:52:00,57.0,54.0,-100.00,WNW,296,4.0,10.0,91,0.00,,,0.00,0.000000,,2013-03-06 06:52:00,
2013-03-05 21:22:00,57.0,54.0,-100.00,NW,314,5.0,7.0,90,0.00,,,0.00,0.000000,,2013-03-06 07:22:00,
2013-03-05 21:31:00,57.0,54.0,-100.00,NW,314,5.0,7.0,90,0.00,,,0.00,0.000000,,2013-03-06 07:31:00,
2013-03-05 21:42:00,57.0,54.0,-100.00,NW,314,5.0,7.0,90,0.00,,,0.00,0.000000,,2013-03-06 07:42:00,
2013-03-05 21:52:00,57.0,54.0,-100.00,NW,314,5.0,7.0,90,0.00,,,0.00,0.000000,,2013-03-06 07:52:00,
2013-03-05 22:21:00,55.0,52.0,-100.00,SSW,209,3.0,8.0,89,0.00,,,0.00,0.000000,,2013-03-06 08:21:00,
2013-03-05 22:31:00,55.0,52.0,-100.00,SSW,209,3.0,8.0,89,0.00,,,0.00,0.000000,,2013-03-06 08:31:00,
2013-03-05 22:42:00,55.0,52.0,-100.00,SSW,209,3.0,8.0,89,0.00,,,0.00,0.000000,,2013-03-06 08:42:00,
2013-03-05 22:52:00,55.0,52.0,-100.00,SSW,209,3.0,8.0,89,0.00,,,0.00,0.000000,,2013-03-06 08:52:00,
2013-03-05 23:21:00,51.0,49.0,-100.00,South,181,4.0,7.0,92,0.00,,,0.00,0.000000,,2013-03-06 09:21:00,
2013-03-05 23:31:00,51.0,49.0,-100.00,South,181,4.0,7.0,92,0.00,,,0.00,0.000000,,2013-03-06 09:31:00,
2013-03-05 23:41:00,51.0,49.0,-100.00,South,181,4.0,7.0,92,0.00,,,0.00,0.000000,,2013-03-06 09:41:00,
2013-03-05 23:51:00,51.0,49.0,-100.00,South,181,4.0,7.0,92,0.00,,,0.00,0.000000,,2013-03-06 09:51:00,